MPEC 2008-J35 : 2008 JL3

The following Minor Planet Electronic Circular may be linked-to from your own Web pages, but must not otherwise be redistributed electronically.


Read MPEC 2008-J34 Read MPEC 2008-J36


M.P.E.C. 2008-J35                                Issued 2008 May 6, 13:46 UT

     The Minor Planet Electronic Circulars contain information on unusual
         minor planets and routine data on comets.  They are published
   on behalf of Commission 20 of the International Astronomical Union by the
          Minor Planet Center, Smithsonian Astrophysical Observatory,
                          Cambridge, MA 02138, U.S.A.

             Prepared using the Tamkin Foundation Computer Network

                              MPC@CFA.HARVARD.EDU
          URL http://www.cfa.harvard.edu/iau/mpc.html  ISSN 1523-6714

                                   2008 JL3

Observations:
     K08J03L* C2008 05 05.35106 15 49 08.68 -23 32 26.5          18.2   EJ035704
     K08J03L  C2008 05 05.36122 15 49 21.89 -23 33 15.9          18.5   EJ035704
     K08J03L  C2008 05 05.37153 15 49 35.26 -23 34 05.6          18.3   EJ035704
     K08J03L  C2008 05 05.38170 15 49 48.44 -23 34 53.8          18.1   EJ035704
     K08J03L  C2008 05 05.39197 15 50 01.71 -23 35 42.1          18.5   EJ035704
     K08J03L  C2008 05 06.22326 16 07 32.87 -24 31 31.7          19.7 R EJ035850
     K08J03L  C2008 05 06.22849 16 07 38.14 -24 31 50.5          18.9 R EJ035850
     K08J03L  C2008 05 06.23371 16 07 43.54 -24 32 08.7          19.4 R EJ035850
     K08J03L  C2008 05 06.23893 16 07 48.95 -24 32 27.6          19.8 R EJ035850
     K08J03L  C2008 05 06.37269 16 10 05.47 -24 39 26.4          18.9 R EJ035854
     K08J03L  C2008 05 06.37587 16 10 08.34 -24 39 37.6          18.8 R EJ035854
     K08J03L  C2008 05 06.37992 16 10 29.41 -24 33 07.2          18.0 R EJ035474
     K08J03L  C2008 05 06.38142 16 10 30.94 -24 33 12.6          18.3 R EJ035474
     K08J03L  C2008 05 06.38501 16 10 34.58 -24 33 25.7          18.0 R EJ035474
     K08J03L  C2008 05 06.38538 16 10 17.24 -24 40 05.6          18.2 R EJ035854
     K08J03L  C2008 05 06.38582 16 10 35.38 -24 33 28.7          17.8 R EJ035474
     K08J03L  C2008 05 06.45446 16 11 43.06 -24 37 30.4          18.2 R EJ035474
     K08J03L  C2008 05 06.45539 16 11 44.00 -24 37 33.6          18.6 R EJ035474
     K08J03L  C2008 05 06.45631 16 11 44.87 -24 37 36.7          18.4 R EJ035474
     K08J03L  C2008 05 06.45723 16 11 45.81 -24 37 39.8          18.4 R EJ035474

Observer details:
474 Mount John Observatory, Lake Tekapo.  Observer A. C. Gilmore.  Measurer
    P. M. Kilmartin.  1.0-m f/7.7 reflector + CCD.
704 Lincoln Laboratory ETS, New Mexico.  Observers M. Bezpalko, D. Torres,
    R. Kracke, G. Spitz, J. Kistler.  Measurers J. Stuart, S. Scruggs.  1.0-m
    f/2.15 reflector + CCD.
850 Cordell-Lorenz Observatory, Sewanee.  Observer D. T. Durig.
854 Sabino Canyon Observatory, Tucson.  Observer J. E. McGaha.  0.36-m f/10.0
    Schmidt-Cassegrain + CCD.

Orbital elements:
2008 JL3                                                 Earth MOID = 0.0013 AU
Epoch 2008 May 14.0 TT = JDT 2454600.5                  MPC
M  10.26745              (2000.0)            P               Q
n   0.31061137     Peri.  155.61013     -0.96174361     +0.27376276
a   2.1593572      Node    40.28249     -0.25385534     -0.87664256
e   0.5434498      Incl.    0.90017     -0.10298881     -0.39566623
P   3.17           H   25.5           G   0.15           U   6
Residuals in seconds of arc
080505 704  0.3-  0.1-    080506 850  0.1+  0.1+    080506 854  0.7-  0.5-
080505 704  0.1-  0.1+    080506 850 (3.5+  0.7-)   080506 474  0.4-  0.0
080505 704  0.0   0.0     080506 854  1.4+  0.9+    080506 474  0.4-  0.0
080505 704  0.4+  0.0     080506 854  0.2-  0.8-    080506 474  0.3+  0.1-
080505 704  0.4+  0.3-    080506 474  0.1-  0.0     080506 474  0.1+  0.1-
080506 850 (3.8-  0.3+)   080506 474  0.0   0.1+    080506 474  0.9+  0.0
080506 850 (2.9-  0.0 )   080506 474  0.1-  0.1+

Ephemeris:
2008 JL3                 a,e,i = 2.16, 0.54, 1                   q = 0.9859
Date    TT    R. A. (2000) Decl.     Delta      r     Elong.  Phase     V
2008 05 04    15 08.92   -20 43.9    0.0201   1.028   172.7     7.2    17.6
2008 05 05    15 40.32   -22 55.4    0.0240   1.032   166.3    13.4    18.2
2008 05 06    16 03.19   -24 14.3    0.0282   1.036   161.9    17.6    18.7
2008 05 07    16 20.22   -25 03.7    0.0326   1.040   158.9    20.4    19.2
2008 05 08    16 33.23   -25 36.1    0.0371   1.044   156.9    22.3    19.5
2008 05 09    16 43.39   -25 58.1    0.0418   1.048   155.6    23.5    19.8
2008 05 10    16 51.49   -26 13.6    0.0465   1.052   154.7    24.2    20.1
2008 05 11    16 58.05   -26 24.7    0.0512   1.056   154.2    24.6    20.3
2008 05 12    17 03.44   -26 32.8    0.0561   1.061   153.9    24.7    20.5
2008 05 13    17 07.91   -26 38.8    0.0609   1.066   153.9    24.7    20.7
2008 05 14    17 11.67   -26 43.3    0.0658   1.070   154.0    24.4    20.9
2008 05 15    17 14.84   -26 46.7    0.0708   1.075   154.3    24.1    21.0
2008 05 16    17 17.53   -26 49.3    0.0757   1.080   154.6    23.7    21.2
2008 05 17    17 19.83   -26 51.1    0.0807   1.085   155.1    23.1    21.3
2008 05 18    17 21.79   -26 52.5    0.0858   1.090   155.6    22.6    21.4
2008 05 19    17 23.47   -26 53.4    0.0909   1.095   156.2    21.9    21.5
2008 05 20    17 24.91   -26 54.0    0.0960   1.101   156.8    21.2    21.7
2008 05 21    17 26.15   -26 54.3    0.101    1.106   157.5    20.5    21.8
2008 05 22    17 27.20   -26 54.3    0.106    1.112   158.2    19.8    21.9
2008 05 23    17 28.10   -26 54.2    0.112    1.117   158.9    19.0    21.9
2008 05 24    17 28.85   -26 53.8    0.117    1.123   159.7    18.2    22.0

Timothy B. Spahr             (C) Copyright 2008 MPC           M.P.E.C. 2008-J35

Read MPEC 2008-J34 Read MPEC 2008-J36


Our Web policy. Index to the CBAT/MPC/ICQ pages.

MPC

Valid HTML 4.01!